| time (UTC) | temp F | wind direction | speed MPH | gust MPH | rain 1hr in | rain 24hr in | rain mn in | humidity % | barometer mb |
| 20260506220330 | 61 | 182 | 1.0 | 5.0 | 0.00 | 0.00 | 0.00 | 63 | 1022.2 |
| 20260506213329 | 64 | 143 | 3.0 | 14.0 | 0.00 | 0.00 | 0.00 | 58 | 1022.2 |
| 20260506210328 | 64 | 158 | 6.0 | 11.0 | 0.00 | 0.00 | 0.00 | 58 | 1021.6 |
| 20260506203329 | 65 | 166 | 9.0 | 17.0 | 0.00 | 0.00 | 0.00 | 62 | 1021.7 |
| 20260506200329 | 65 | 153 | 4.0 | 9.0 | 0.00 | 0.00 | 0.00 | 62 | 1021.9 |
| 20260506193329 | 60 | 171 | 0.0 | 2.0 | 0.00 | 0.00 | 0.00 | 63 | 1022.3 |
| 20260506190329 | 60 | 160 | 0.0 | 2.0 | 0.00 | 0.00 | 0.00 | 65 | 1022.6 |
| 20260506183328 | 62 | 182 | 0.0 | 2.0 | 0.00 | 0.00 | 0.00 | 61 | 1023.2 |
| 20260506180330 | 67 | 206 | 0.0 | 1.0 | 0.00 | 0.00 | 0.00 | 51 | 1023.6 |
| 20260506173330 | 72 | 221 | 0.0 | 1.0 | 0.00 | 0.00 | 0.00 | 40 | 1023.7 |
| 20260506170330 | 78 | 181 | 0.0 | 2.0 | 0.00 | 0.00 | 0.00 | 33 | 1024.0 |
| 20260506163328 | 76 | 218 | 0.0 | 5.0 | 0.00 | 0.00 | 0.00 | 36 | 1023.6 |
| 20260506160328 | 80 | 222 | 1.0 | 9.0 | 0.00 | 0.00 | 0.00 | 29 | 1023.5 |
| 20260506153330 | 79 | 230 | 3.0 | 6.0 | 0.00 | 0.00 | 0.00 | 31 | 1023.1 |
| 20260506150329 | 79 | 214 | 2.0 | 7.0 | 0.00 | 0.00 | 0.00 | 33 | 1022.8 |
| 20260506143329 | 77 | 196 | 2.0 | 7.0 | 0.00 | 0.00 | 0.00 | 33 | 1022.7 |
| 20260506140330 | 80 | 208 | 6.0 | 11.0 | 0.00 | 0.00 | 0.00 | 31 | 1022.6 |
| 20260506133330 | 82 | 192 | 3.0 | 10.0 | 0.00 | 0.00 | 0.00 | 29 | 1022.4 |
| 20260506130329 | 78 | 184 | 4.0 | 14.0 | 0.00 | 0.00 | 0.00 | 32 | 1022.1 |
| 20260506123328 | 78 | 206 | 3.0 | 11.0 | 0.00 | 0.00 | 0.00 | 35 | 1021.9 |
| 20260506120328 | 77 | 190 | 5.0 | 15.0 | 0.00 | 0.00 | 0.00 | 38 | 1021.7 |
| 20260506113330 | 78 | 181 | 5.0 | 14.0 | 0.00 | 0.00 | 0.00 | 36 | 1021.6 |
| 20260506110328 | 77 | 191 | 9.0 | 13.0 | 0.00 | 0.00 | 0.00 | 38 | 1021.6 |
| 20260506103329 | 77 | 165 | 3.0 | 19.0 | 0.00 | 0.00 | 0.00 | 35 | 1021.6 |
| 20260506100329 | 77 | 178 | 6.0 | 11.0 | 0.00 | 0.00 | 0.00 | 36 | 1021.4 |
| 20260506093329 | 77 | 195 | 5.0 | 9.0 | 0.00 | 0.00 | 0.00 | 34 | 1021.3 |
| 20260506090329 | 75 | 207 | 6.0 | 11.0 | 0.00 | 0.00 | 0.00 | 34 | 1021.5 |
| 20260506083330 | 74 | 218 | 3.0 | 7.0 | 0.00 | 0.00 | 0.00 | 37 | 1021.4 |
| 20260506080330 | 74 | 166 | 3.0 | 8.0 | 0.00 | 0.00 | 0.00 | 35 | 1021.6 |
| 20260506073328 | 72 | 189 | 2.0 | 6.0 | 0.00 | 0.00 | 0.00 | 36 | 1021.4 |
| 20260506070329 | 69 | 190 | 3.0 | 6.0 | 0.00 | 0.00 | 0.00 | 40 | 1021.0 |
| 20260506060328 | 62 | 231 | 1.0 | 3.0 | 0.00 | 0.00 | 0.00 | 51 | 1021.0 |
| 20260506050328 | 61 | 126 | 2.0 | 7.0 | 0.00 | 0.00 | 0.00 | 51 | 1021.3 |
| 20260506043329 | 59 | 136 | 3.0 | 5.0 | 0.00 | 0.00 | 0.00 | 54 | 1021.0 |
| 20260506040329 | 55 | 45 | 0.0 | 2.0 | 0.00 | 0.00 | 0.00 | 59 | 1020.9 |
| 20260506033328 | 54 | 181 | 0.0 | 1.0 | 0.00 | 0.00 | 0.00 | 58 | 1021.1 |
| 20260506030328 | 54 | 139 | 1.0 | 3.0 | 0.00 | 0.00 | 0.00 | 57 | 1021.0 |
| 20260506023330 | 56 | 45 | 0.0 | 0.0 | 0.00 | 0.00 | 0.00 | 52 | 1021.1 |
| 20260506020328 | 57 | 314 | 0.0 | 0.0 | 0.00 | 0.00 | 0.00 | 50 | 1020.7 |
| 20260506013330 | 57 | 168 | 0.0 | 3.0 | 0.00 | 0.00 | 0.00 | 52 | 1020.6 |
| 20260506010330 | 56 | 163 | 1.0 | 3.0 | 0.00 | 0.00 | 0.00 | 52 | 1020.8 |
| 20260506003329 | 55 | 168 | 1.0 | 5.0 | 0.00 | 0.00 | 0.00 | 53 | 1020.7 |
| 20260506000330 | 56 | 161 | 1.0 | 3.0 | 0.00 | 0.00 | 0.00 | 52 | 1020.9 |
| 20260505233329 | 56 | 166 | 2.0 | 4.0 | 0.00 | 0.00 | 0.00 | 51 | 1020.9 |
| 20260505230329 | 57 | 186 | 1.0 | 4.0 | 0.00 | 0.00 | 0.00 | 51 | 1021.3 |
| 20260505223330 | 58 | 166 | 1.0 | 4.0 | 0.00 | 0.00 | 0.00 | 48 | 1021.3 |